TimeCST,TemperatureF,Dew PointF,Humidity,Sea Level PressureIn,VisibilityMPH,Wind Direction,Wind SpeedMPH,Gust SpeedMPH,PrecipitationIn,Events,Conditions,WindDirDegrees,DateUTC
12:53 AM,30.0,25.0,82,30.46,10.0,Calm,Calm,-,N/A,,Clear,0,2012-11-16 06:53:00
1:53 AM,28.9,25.0,85,30.46,10.0,Calm,Calm,-,N/A,,Clear,0,2012-11-16 07:53:00
2:53 AM,28.0,24.1,85,30.45,10.0,Calm,Calm,-,N/A,,Clear,0,2012-11-16 08:53:00
3:53 AM,24.1,21.0,88,30.44,10.0,Calm,Calm,-,N/A,,Clear,0,2012-11-16 09:53:00
4:53 AM,26.1,23.0,88,30.44,10.0,Calm,Calm,-,N/A,,Clear,0,2012-11-16 10:53:00
5:53 AM,27.0,23.0,85,30.45,10.0,Calm,Calm,-,N/A,,Clear,0,2012-11-16 11:53:00
6:53 AM,30.0,26.1,85,30.45,10.0,Calm,Calm,-,N/A,,Clear,0,2012-11-16 12:53:00
7:53 AM,28.9,27.0,92,30.46,10.0,Calm,Calm,-,N/A,,Clear,0,2012-11-16 13:53:00
8:53 AM,34.0,28.9,82,30.45,10.0,SSE,6.9,-,N/A,,Clear,160,2012-11-16 14:53:00
9:53 AM,39.0,32.0,76,30.45,10.0,South,9.2,-,N/A,,Clear,170,2012-11-16 15:53:00
10:53 AM,45.0,33.1,63,30.42,10.0,SSE,10.4,-,N/A,,Clear,150,2012-11-16 16:53:00
11:53 AM,50.0,33.1,52,30.39,10.0,SSE,11.5,-,N/A,,Clear,150,2012-11-16 17:53:00
12:53 PM,54.0,32.0,43,30.36,10.0,South,10.4,19.6,N/A,,Clear,190,2012-11-16 18:53:00
1:53 PM,54.0,33.1,45,30.33,10.0,South,9.2,-,N/A,,Clear,180,2012-11-16 19:53:00
2:53 PM,55.9,30.0,37,30.31,10.0,South,10.4,-,N/A,,Clear,170,2012-11-16 20:53:00
3:53 PM,55.0,30.9,40,30.29,10.0,South,11.5,-,N/A,,Clear,170,2012-11-16 21:53:00
4:53 PM,52.0,33.1,49,30.28,10.0,South,9.2,-,N/A,,Clear,170,2012-11-16 22:53:00
5:53 PM,48.9,33.1,54,30.28,10.0,SSE,9.2,-,N/A,,Clear,160,2012-11-16 23:53:00
6:53 PM,46.0,33.1,61,30.28,10.0,SSE,10.4,-,N/A,,Clear,160,2012-11-17 00:53:00
7:53 PM,43.0,33.1,68,30.27,10.0,SSE,11.5,-,N/A,,Clear,160,2012-11-17 01:53:00
8:53 PM,42.1,33.1,70,30.27,10.0,SSE,10.4,-,N/A,,Clear,160,2012-11-17 02:53:00
9:53 PM,43.0,33.1,68,30.26,10.0,South,8.1,-,N/A,,Clear,170,2012-11-17 03:53:00
10:53 PM,42.1,32.0,67,30.25,10.0,South,10.4,-,N/A,,Clear,170,2012-11-17 04:53:00
11:53 PM,42.1,32.0,67,30.25,10.0,South,10.4,-,N/A,,Clear,180,2012-11-17 05:53:00